TimePDT,TemperatureF,Dew PointF,Humidity,Sea Level PressureIn,VisibilityMPH,Wind Direction,Wind SpeedMPH,Gust SpeedMPH,PrecipitationIn,Events,Conditions,WindDirDegrees,DateUTC
12:53 AM,48.0,37.9,68,30.19,10.0,Calm,Calm,-,N/A,,Clear,0,2012-09-13 07:53:00
1:53 AM,48.9,39.9,71,30.19,10.0,Calm,Calm,-,N/A,,Clear,0,2012-09-13 08:53:00
2:53 AM,50.0,37.9,63,30.18,10.0,East,10.4,-,N/A,,Clear,90,2012-09-13 09:53:00
3:53 AM,46.9,37.0,68,30.17,10.0,Calm,Calm,-,N/A,,Clear,0,2012-09-13 10:53:00
4:53 AM,46.0,37.0,71,30.17,10.0,ENE,4.6,-,N/A,,Clear,70,2012-09-13 11:53:00
5:53 AM,45.0,36.0,71,30.17,10.0,ENE,3.5,-,N/A,,Clear,70,2012-09-13 12:53:00
6:53 AM,43.0,35.1,74,30.17,10.0,Calm,Calm,-,N/A,,Clear,0,2012-09-13 13:53:00
7:53 AM,48.9,39.0,69,30.17,10.0,East,3.5,-,N/A,,Clear,90,2012-09-13 14:53:00
8:53 AM,55.0,39.9,57,30.16,10.0,Calm,Calm,-,N/A,,Clear,0,2012-09-13 15:53:00
9:53 AM,64.9,44.1,47,30.16,10.0,Calm,Calm,-,N/A,,Clear,0,2012-09-13 16:53:00
10:53 AM,73.0,43.0,34,30.14,10.0,ENE,6.9,-,N/A,,Clear,60,2012-09-13 17:53:00
11:53 AM,77.0,44.1,31,30.13,10.0,NE,4.6,-,N/A,,Clear,40,2012-09-13 18:53:00
12:53 PM,79.0,43.0,28,30.12,9.0,Calm,Calm,-,N/A,,Clear,0,2012-09-13 19:53:00
1:53 PM,82.0,43.0,25,30.09,8.0,North,4.6,-,N/A,,Clear,10,2012-09-13 20:53:00
2:53 PM,82.9,39.9,22,30.07,8.0,North,8.1,-,N/A,,Clear,360,2012-09-13 21:53:00
3:53 PM,82.9,37.0,19,30.06,6.0,WNW,5.8,-,N/A,,Haze,290,2012-09-13 22:53:00
4:53 PM,82.0,37.9,21,30.05,7.0,West,5.8,-,N/A,,Clear,280,2012-09-13 23:53:00
5:53 PM,79.0,43.0,28,30.05,6.0,NW,4.6,-,N/A,,Haze,320,2012-09-14 00:53:00
6:53 PM,72.0,42.1,34,30.05,6.0,NW,3.5,-,N/A,,Haze,310,2012-09-14 01:53:00
7:53 PM,63.0,44.1,50,30.05,7.0,Calm,Calm,-,N/A,,Clear,0,2012-09-14 02:53:00
8:53 PM,55.9,46.0,69,30.07,7.0,Calm,Calm,-,N/A,,Clear,0,2012-09-14 03:53:00
9:53 PM,57.0,46.0,67,30.08,7.0,North,3.5,-,N/A,,Clear,350,2012-09-14 04:53:00
10:53 PM,51.1,44.1,77,30.09,7.0,Calm,Calm,-,N/A,,Clear,0,2012-09-14 05:53:00
11:53 PM,52.0,45.0,77,30.09,8.0,Calm,Calm,-,N/A,,Clear,0,2012-09-14 06:53:00